Temp
92 91 94 93 97 76 86 87 79 84 95 89 79 80 85 83 76 71 83 82 86 94 95 98 97 97 98 100 100 101 99 103 102 101 101 99 97 99 99 99 98 96 97 96 96 95 96 96 95 94 92 92 92 92 91 90 90 90 90 89 90 90 90
93 97 95 95 97 97 91 80 86 96 99 94 82 72 74 73 69 71 82 77 80 81 75 94 94 93 94 95 96 101 101 103 102 100 99 100 100 100 99 99 97 98 97 96 97 98 98 96 96 94 92 93 93 93 92 90 90 89 90 90 90 90 90
92 97 94 90 95 98 90 89 100 85 75 72 81 77 66 67 65 70 76 81 83 82 79 89 88 90 90 92 95 98 101 101 101 100 99 100 100 98 99 100 98 97 97 97 96 98 99 97 94 94 94 95 94 94 93 93 91 91 91 92 91 91 91
93 92 89 75 83 93 96 98 93 97 88 80 74 77 77 74 68 69 71 79 76 86 87 90 89 91 92 93 94 97 100 101 102 100 100 99 98 97 100 100 100 99 99 99 100 99 99 97 96 97 97 97 97 96 93 93 93 92 92 91 91 90 91
90 78 85 81 84 81 84 85 84 89 87 93 90 87 79 73 70 70 69 68 76 86 96 94 92 94 95 96 95 97 99 100 103 104 102 99 98 98 100 100 100 99 100 101 101 100 100 100 98 99 99 98 98 98 96 95 92 93 93 92 92 90 91
79 82 91 90 90 90 87 85 82 86 84 79 72 69 87 84 75 65 70 67 79 92 101 98 98 97 99 99 98 98 100 102 102 103 104 102 101 99 100 102 103 102 100 100 101 100 100 101 100 100 99 99 99 98 98 97 97 96 96 93 91 90 91
82 87 93 95 95 95 93 91 86 90 89 86 78 66 75 82 81 84 79 74 77 95 98 99 98 98 100 101 102 101 103 103 105 104 108 104 101 100 102 102 104 103 100 100 100 98 98 98 97 98 99 99 99 99 98 97 97 96 98 96 94 91 91
90 92 95 95 95 93 90 91 92 90 84 87 84 81 81 77 79 75 75 69 78 95 97 98 100 98 102 101 102 99 101 102 103 103 105 100 98 98 102 102 104 102 101 99 97 96 95 95 95 96 97 98 99 99 100 100 98 97 98 97 96 92 91
75 82 86 87 93 91 86 86 90 90 90 90 90 89 87 76 79 80 73 66 78 90 97 97 98 100 101 102 103 102 100 102 104 104 104 102 99 97 99 99 100 100 101 97 94 94 93 94 97 95 96 97 99 98 100 100 99 99 98 98 96 93 93
59 60 63 67 74 80 85 88 89 90 90 88 84 76 77 69 75 76 74 75 83 92 94 95 97 98 95 98 101 104 103 101 103 102 103 97 97 95 96 97 98 98 96 95 94 94 92 95 96 94 94 97 98 97 98 101 100 98 98 99 97 94 94
71 73 76 86 86 85 79 83 85 88 90 91 87 82 76 72 75 74 76 79 81 85 92 91 95 95 95 96 98 99 100 102 101 100 97 97 95 94 96 95 96 95 94 93 93 93 94 96 95 95 96 96 97 95 96 100 100 99 97 96 94 93 94
79 84 82 88 87 83 85 83 84 87 87 88 84 79 75 80 77 68 78 80 80 82 88 91 93 96 95 95 96 98 99 100 103 101 94 93 95 95 94 94 94 93 93 93 92 92 93 94 94 95 96 96 96 95 96 98 101 100 99 95 93 92 92
82 84 85 88 86 86 87 87 85 84 86 86 82 80 85 82 76 72 79 81 79 84 90 93 94 95 95 98 97 99 102 102 101 99 98 97 97 95 94 92 92 92 93 91 91 92 92 93 93 93 94 94 94 95 96 96 100 99 96 93 93 93 91
82 83 84 86 85 84 84 84 86 87 86 85 85 86 87 86 79 83 84 82 83 89 91 95 96 97 100 101 100 100 100 102 99 100 99 98 98 96 95 93 93 92 92 91 90 90 90 92 91 93 92 92 94 94 95 97 96 96 95 93 92 91 91
77 82 84 84 84 83 82 84 85 88 89 87 87 86 87 86 85 87 86 81 81 91 94 95 97 97 99 99 100 100 98 100 102 100 102 101 101 102 98 93 93 93 92 91 90 90 90 90 91 91 91 92 93 96 94 94 94 95 96 92 91 91 90
72 80 81 82 83 83 81 82 84 84 85 82 86 83 87 83 79 82 83 79 81 89 94 96 96 95 95 94 96 98 98 102 99 99 100 100 100 101 100 97 94 93 92 91 90 90 91 92 91 91 91 92 92 93 93 94 95 96 94 92 91 90 91
67 77 80 80 81 79 73 75 81 84 87 88 90 91 90 88 88 81 76 78 87 90 93 92 93 95 94 94 96 96 97 96 100 99 99 100 101 101 99 96 93 94 95 94 91 92 92 92 92 93 93 93 91 92 92 92 93 94 93 93 90 90 90
68 76 79 81 72 61 63 81 89 87 84 85 84 85 88 91 90 87 89 88 90 92 92 91 90 92 92 94 95 98 96 95 96 100 100 102 102 103 104 100 98 95 95 95 94 94 92 93 94 95 94 92 92 93 93 92 92 91 91 91 90 89 89
67 74 75 67 58 63 80 89 91 91 90 89 86 88 92 92 93 92 91 92 91 92 93 93 93 94 96 98 97 100 102 99 98 98 100 99 99 100 100 98 99 96 94 94 93 92 93 94 94 95 93 94 92 92 92 91 91 90 91 90 89 89 88
72 68 66 54 59 77 85 88 90 92 90 87 84 80 87 92 93 91 90 91 93 93 93 95 96 95 97 99 97 98 102 102 100 101 101 102 103 102 101 97 96 94 95 94 94 92 94 94 95 95 94 95 92 91 92 91 91 90 90 89 88 88 88
63 65 65 66 74 75 79 80 78 81 77 79 76 70 77 84 86 89 90 91 93 95 96 97 97 98 99 94 94 102 103 100 104 106 104 104 103 105 101 102 99 95 95 95 95 93 93 94 94 95 95 94 92 91 91 92 90 90 89 88 88 88 88
70 66 64 65 65 60 67 71 80 85 86 85 84 76 74 86 90 91 89 89 91 92 95 95 96 96 89 86 90 99 104 104 103 104 105 106 106 106 104 100 98 94 95 95 94 95 93 93 95 95 95 92 90 89 89 89 89 89 89 88 89 88 88
68 65 61 62 59 64 70 73 79 83 86 85 84 76 70 83 84 85 84 82 84 87 93 93 93 89 83 83 89 97 101 103 105 104 104 105 106 104 102 99 97 95 93 94 94 93 92 93 94 94 93 91 89 88 89 91 91 90 89 89 89 88 88
66 65 62 60 66 66 71 78 82 85 86 84 77 63 67 74 81 83 84 83 85 85 85 88 91 87 81 86 91 101 102 103 105 103 100 100 102 102 100 100 97 93 92 92 91 92 92 92 93 93 93 91 88 89 91 92 90 89 89 89 90 89 89
65 61 65 68 69 77 80 80 81 84 84 78 64 56 71 77 81 83 83 84 86 86 84 88 85 90 93 95 98 102 103 105 105 103 101 100 102 100 100 97 91 92 92 91 91 92 92 92 94 94 92 90 88 89 89 89 88 89 90 90 89 88 88
65 67 63 64 70 78 83 84 84 85 77 61 57 73 76 80 81 83 84 85 85 86 86 86 88 90 96 102 101 100 101 100 99 99 99 100 100 99 96 90 90 91 93 91 92 94 92 93 94 93 90 87 87 88 88 88 89 91 90 89 88 88 87
71 68 64 61 53 74 83 80 82 83 68 70 77 78 81 84 82 82 84 84 85 85 84 88 88 91 94 98 99 99 98 97 93 94 95 94 94 95 92 90 92 92 91 91 92 90 92 93 91 90 89 87 87 87 87 87 89 89 88 88 87 87 86
64 64 60 60 74 76 84 82 72 75 77 78 79 79 79 83 83 83 81 83 84 84 83 85 89 91 91 93 91 92 93 93 93 93 92 93 93 90 93 93 92 94 90 89 88 90 91 90 90 89 87 85 86 85 85 87 87 87 87 86 85 85 85
71 67 72 71 78 80 85 83 79 79 80 81 81 81 81 80 82 82 82 81 82 84 84 83 85 86 92 91 92 91 91 93 92 91 90 91 90 91 91 92 91 90 89 87 87 87 88 87 88 88 88 86 84 83 84 86 85 85 85 84 84 84 84
75 76 76 77 78 78 81 85 85 84 84 85 84 82 80 81 83 83 81 82 83 82 83 83 85 87 86 87 88 87 86 89 89 89 89 90 90 90 89 87 86 86 86 85 85 84 85 87 87 87 87 86 82 82 85 84 85 84 83 82 82 83 84
68 58 72 72 75 78 80 81 83 85 85 83 83 80 81 82 83 83 83 82 82 83 83 83 82 82 84 81 82 84 84 85 86 87 86 87 87 86 84 85 85 85 86 85 85 84 84 86 88 88 86 86 84 84 84 86 85 83 83 82 82 82 82
67 65 71 73 77 77 79 79 78 79 80 81 82 82 82 81 82 84 81 79 77 83 83 83 81 81 78 77 80 79 78 78 80 79 80 81 85 86 87 86 86 86 85 84 83 83 83 85 86 86 85 85 84 86 88 89 86 83 81 82 82 82 82
63 68 70 74 74 75 73 74 75 77 78 78 78 79 78 80 80 80 81 82 76 73 78 76 80 80 82 82 81 81 79 80 79 79 80 81 82 83 82 82 82 82 82 81 81 81 81 83 83 83 83 85 86 87 87 85 82 81 79 79 81 82 82
53 55 59 70 65 62 69 71 72 74 75 74 74 75 75 76 74 74 76 78 79 81 82 81 81 79 79 81 82 81 80 81 82 82 83 83 83 83 84 84 83 82 82 82 81 80 81 82 82 82 82 82 84 87 85 84 83 81 80 81 83 84 84
52 57 61 64 65 67 69 70 71 72 73 72 70 69 69 71 73 73 70 71 76 76 77 80 80 78 78 79 81 82 82 81 82 83 84 84 84 84 84 83 82 82 82 81 81 81 81 82 82 83 83 85 85 87 86 85 85 83 82 81 83 86 84
62 66 65 66 69 67 68 71 71 70 71 71 68 66 66 67 68 70 72 71 68 71 75 75 77 78 79 79 80 78 80 82 81 81 83 85 85 84 85 83 82 81 81 81 81 80 82 83 84 84 86 86 85 87 85 86 85 83 83 82 83 86 86
62 71 68 69 69 71 74 73 72 71 70 69 66 64 64 63 64 67 67 70 73 73 71 71 72 74 75 78 79 77 78 79 80 81 80 79 82 82 84 83 82 81 81 82 82 83 83 83 84 84 84 84 85 87 84 85 84 83 82 83 85 86 84
MSLP
999.39 1000.03 999.75 999.87 998.95 1005.55 1001.95 1002.71 1004.79 1002.47 1000.43 1002.47 1004.99 1004.67 1003.19 1003.71 1005.71 1006.63 1002.99 1002.91 1001.79 999.75 999.23 998.95 998.99 999.23 999.07 998.87 999.15 998.99 998.71 998.03 997.71 998.75 999.31 1000.15 1000.67 1000.67 1000.63 1000.79 1001.11 1001.27 1001.39 1001.71 1001.99 1002.43 1002.87 1003.31 1003.75 1004.11 1004.43 1004.75 1005.23 1005.67 1006.23 1006.79 1007.07 1007.27 1007.63 1007.91 1008.23 1008.47 1008.79
998.79 997.95 998.91 999.31 998.59 998.63 1000.39 1003.71 1001.79 999.43 998.87 1000.39 1003.87 1007.63 1006.23 1006.87 1007.99 1006.35 1003.47 1004.75 1003.59 1003.79 1005.47 999.43 999.91 1000.63 1000.59 1000.15 999.79 998.83 997.99 997.55 998.07 999.23 999.63 999.43 999.59 999.55 999.71 999.87 1000.19 1000.47 1000.71 1001.11 1001.31 1001.51 1001.87 1002.31 1002.83 1003.39 1003.79 1004.07 1004.47 1004.91 1005.51 1006.23 1006.67 1007.07 1007.15 1007.43 1007.79 1008.03 1008.43
998.55 997.83 999.11 1000.63 998.75 997.83 999.83 1000.07 997.11 1002.23 1005.87 1007.03 1003.15 1005.07 1008.67 1008.59 1008.99 1006.99 1004.47 1003.27 1002.07 1002.35 1003.63 1001.07 1001.43 1000.99 1001.11 1000.43 999.63 999.07 998.43 998.23 998.11 998.87 999.43 999.31 999.35 1000.07 999.63 999.79 1000.03 1000.27 1000.43 1000.67 1000.79 1000.95 1001.11 1001.59 1002.07 1002.55 1003.03 1003.51 1003.95 1004.43 1004.79 1005.27 1005.95 1006.15 1006.47 1006.75 1007.15 1007.47 1007.75
998.03 998.99 1000.23 1004.11 1002.03 999.03 998.07 997.55 998.51 997.91 1001.15 1003.11 1005.47 1003.87 1004.35 1005.55 1007.11 1007.11 1006.27 1003.79 1004.07 1000.39 1000.11 999.95 1000.71 999.99 999.79 999.87 999.35 998.95 998.31 997.87 997.23 997.55 998.47 999.43 1000.19 1000.15 999.27 999.35 999.47 999.59 999.67 999.87 1000.15 1000.47 1000.87 1001.27 1001.79 1002.11 1002.55 1002.95 1003.47 1003.87 1004.39 1004.87 1005.11 1005.51 1005.99 1006.43 1006.75 1007.23 1007.31
998.83 1002.39 1000.27 1001.43 1000.67 1001.91 1001.39 1001.19 1001.11 999.55 1000.23 998.31 999.95 1001.19 1003.43 1005.27 1006.03 1006.11 1006.31 1006.63 1003.51 999.47 996.43 997.71 998.55 998.23 998.31 998.31 998.51 997.95 997.79 997.23 996.35 996.03 997.07 998.03 998.59 999.07 998.79 998.79 998.95 999.11 999.23 999.35 999.55 999.71 999.99 1000.43 1000.99 1001.39 1001.83 1002.35 1002.71 1003.11 1003.83 1004.19 1004.87 1005.23 1005.63 1005.87 1006.19 1006.59 1006.75
1001.31 999.99 997.83 998.39 998.63 998.63 999.59 1000.43 1001.31 1000.23 1000.95 1002.87 1005.27 1005.59 1000.35 1001.31 1004.43 1005.87 1005.83 1006.11 1001.75 997.71 994.95 994.95 996.15 997.07 996.95 996.83 996.87 997.19 996.99 996.51 995.67 995.59 995.79 996.59 997.51 997.91 998.15 998.15 998.19 998.47 998.67 998.79 998.99 999.27 999.51 999.99 1000.47 1000.87 1001.11 1001.63 1002.11 1002.59 1002.99 1003.51 1003.95 1004.47 1004.87 1005.31 1005.59 1005.95 1006.19
1000.03 998.75 996.79 996.55 996.99 996.91 997.35 998.19 999.87 998.79 998.91 999.63 1002.27 1005.51 1002.95 1001.87 1001.99 1001.79 1002.39 1003.83 1001.83 995.79 994.59 994.67 995.71 996.47 996.11 995.91 995.83 996.15 995.95 995.79 995.51 995.59 994.83 995.23 996.51 997.51 997.71 997.71 997.59 997.75 998.19 998.39 998.55 998.95 999.23 999.43 999.83 1000.23 1000.59 1000.95 1001.39 1001.87 1002.35 1002.83 1003.35 1003.75 1003.83 1004.35 1004.79 1005.23 1005.71
996.79 996.39 996.03 995.83 996.51 997.31 998.19 997.55 997.19 998.27 999.95 999.07 1000.19 1001.19 1001.07 1002.83 1002.23 1003.63 1003.63 1004.87 1001.91 996.11 994.39 994.51 994.87 995.47 995.31 995.03 995.75 996.59 996.55 996.19 995.95 995.63 994.95 995.59 997.03 997.31 997.11 997.03 997.03 997.19 997.59 998.11 998.47 998.95 999.27 999.39 999.75 999.91 1000.03 1000.39 1000.75 1001.19 1001.63 1002.15 1002.71 1002.99 1003.27 1003.63 1004.19 1004.75 1005.27
1001.47 999.23 998.23 998.07 996.39 997.51 998.63 998.39 997.27 997.31 997.63 997.63 997.91 998.55 998.43 1002.15 1001.35 1001.71 1003.75 1005.39 1001.91 997.87 994.99 995.03 995.03 995.15 995.63 995.67 995.43 995.67 996.47 995.83 995.51 995.03 994.95 995.59 996.35 997.11 997.31 997.35 997.31 997.23 997.51 998.15 998.47 998.63 999.07 999.23 999.31 999.67 999.83 1000.03 1000.35 1000.75 1000.99 1001.47 1001.87 1002.15 1002.63 1002.95 1003.59 1004.27 1004.75
1005.71 1005.11 1004.27 1003.07 1001.15 999.39 998.23 997.63 997.31 996.99 997.31 997.67 999.55 1002.11 1001.15 1003.35 1001.59 1001.63 1002.47 1001.67 999.27 996.95 995.79 996.03 995.67 995.79 996.59 996.27 995.91 995.27 995.15 995.47 995.63 995.31 995.11 996.11 996.67 997.31 997.43 997.47 997.51 997.63 997.55 997.87 998.31 998.59 998.91 999.07 999.19 999.47 999.63 999.67 999.83 1000.23 1000.51 1000.59 1001.27 1001.75 1002.19 1002.35 1002.95 1003.75 1004.27
1001.39 1000.35 999.07 996.79 997.15 997.99 1000.03 998.87 998.39 997.51 996.79 997.07 998.31 999.71 1001.35 1002.31 1001.71 1002.35 1000.63 1000.43 1000.15 998.87 997.03 996.87 996.19 996.35 997.23 997.15 996.47 996.23 995.59 994.91 994.95 995.11 996.15 996.59 996.99 997.39 997.51 997.63 997.51 997.43 997.67 997.91 998.03 998.31 998.63 998.83 998.95 999.19 999.43 999.55 999.55 999.95 1000.27 1000.23 1000.55 1001.15 1001.67 1002.07 1002.63 1003.35 1003.83
998.59 997.31 997.63 996.31 996.79 998.23 997.67 998.55 998.55 997.75 997.27 997.27 998.47 999.83 1000.91 999.11 1001.15 1003.19 1000.11 999.43 1001.07 1000.23 997.83 996.59 995.79 995.63 996.27 996.51 996.55 996.07 995.79 995.03 994.47 994.87 996.43 996.43 996.99 997.19 997.31 997.59 997.71 997.87 997.79 997.95 998.27 998.31 998.55 998.79 998.87 999.11 999.19 999.23 999.35 999.71 1000.07 1000.03 1000.19 1000.71 1001.19 1001.79 1002.39 1002.99 1003.43
998.75 997.91 996.99 996.35 997.11 997.07 996.39 996.83 997.75 998.19 997.67 997.63 998.51 998.67 997.99 998.39 1000.51 1001.71 999.59 999.03 1000.27 999.35 997.67 996.27 995.39 994.95 995.23 995.75 995.95 995.43 994.67 994.51 994.63 994.87 995.87 996.43 996.67 996.99 997.35 997.47 997.47 997.63 997.79 997.91 998.15 998.27 998.35 998.51 998.91 999.11 999.23 999.31 999.31 999.55 999.63 999.79 999.87 1000.35 1000.71 1001.51 1002.15 1002.67 1003.15
998.27 998.07 997.83 996.95 996.95 997.19 997.39 997.67 997.11 996.95 997.39 997.71 997.71 997.51 997.15 997.75 998.59 998.07 998.15 998.55 998.67 997.47 997.03 995.99 995.11 994.11 993.95 993.79 994.07 994.27 994.55 994.67 994.63 994.75 994.95 995.95 996.03 996.55 996.99 997.15 997.19 997.27 997.39 997.75 997.99 998.11 998.23 998.35 998.63 998.87 999.07 999.19 999.23 999.43 999.63 999.71 999.87 1000.03 1000.51 1001.39 1001.95 1002.43 1002.95
999.11 997.79 997.55 997.51 997.55 997.35 997.55 996.87 996.91 995.91 995.55 996.51 996.87 997.35 996.99 996.87 997.39 997.43 997.79 998.47 998.71 996.03 994.83 995.15 994.59 993.91 993.75 993.67 994.07 994.63 994.47 994.51 994.55 994.75 994.63 994.67 994.95 995.03 995.79 996.59 996.79 996.95 997.15 997.43 997.79 997.99 997.95 997.91 998.15 998.47 998.67 998.83 998.95 999.07 999.31 999.51 999.75 999.83 1000.31 1001.23 1001.71 1002.15 1002.67
1000.43 998.27 998.07 997.63 997.31 997.59 998.03 997.39 996.47 996.43 996.71 997.63 996.19 996.95 996.35 997.39 998.27 998.07 998.31 998.83 998.27 996.27 994.71 994.59 994.95 995.03 994.83 995.03 994.55 994.27 994.27 994.07 994.47 994.67 994.47 994.51 994.43 994.47 994.71 995.43 996.31 996.87 997.07 997.23 997.51 997.59 997.43 997.27 997.51 997.95 998.35 998.47 998.75 998.95 999.07 999.39 999.51 999.63 1000.23 1000.91 1001.51 1001.99 1002.23
1001.27 998.75 998.27 998.27 997.75 998.47 999.63 998.55 996.59 995.83 994.95 994.75 994.63 994.07 994.67 995.55 996.15 998.07 999.51 998.75 996.27 995.63 994.91 995.67 995.51 995.43 995.39 995.11 994.63 994.47 993.99 993.91 993.91 994.23 994.39 994.35 994.23 993.99 994.19 995.07 995.95 996.35 996.59 996.55 996.71 996.91 997.07 996.95 996.95 997.19 997.55 998.11 998.59 998.51 998.91 999.03 999.15 999.63 1000.19 1000.75 1001.31 1001.75 1001.99
1000.59 999.11 998.27 997.79 1000.23 1003.47 1001.11 995.67 994.51 994.99 996.03 995.35 995.47 995.55 994.83 993.99 994.47 995.51 995.19 995.51 994.91 995.03 995.19 995.55 995.71 995.43 995.03 994.59 993.87 993.23 993.87 994.19 993.95 993.67 993.59 993.47 993.59 993.43 993.19 993.71 994.67 995.43 995.63 995.71 995.87 996.07 996.35 996.31 996.11 996.51 996.99 997.67 998.03 998.07 998.47 998.79 999.23 999.63 1000.11 1000.63 1001.11 1001.63 1001.87
1000.99 999.23 999.03 1001.43 1003.27 1000.83 995.67 993.79 993.87 993.91 994.19 994.39 994.99 994.03 992.87 993.07 993.03 993.47 993.75 993.67 993.99 994.11 994.03 994.23 994.23 993.91 993.51 993.31 993.51 993.23 992.67 993.03 993.31 993.27 993.03 993.03 993.23 993.31 993.11 993.79 994.39 995.03 995.27 995.19 995.55 995.87 996.03 996.11 995.99 996.31 996.99 997.23 997.67 998.07 998.35 998.95 999.19 999.63 1000.03 1000.51 1001.07 1001.43 1001.83
999.59 1000.55 1001.03 1004.55 1001.51 996.67 994.75 993.83 993.39 993.23 994.11 995.03 995.75 996.27 994.07 992.79 992.83 993.23 993.91 993.43 992.99 993.15 993.59 993.19 992.71 992.91 992.91 992.83 992.59 992.35 991.95 991.91 992.39 992.55 992.55 992.35 992.35 992.67 992.67 993.51 993.99 994.47 994.71 994.79 994.99 995.31 995.11 995.55 995.67 995.95 996.67 996.83 997.47 998.03 998.15 998.79 999.19 999.51 999.95 1000.43 1000.91 1001.23 1001.63
1001.75 1001.19 1000.95 1000.03 997.51 997.67 996.71 996.19 996.83 996.63 997.83 997.23 998.23 999.75 997.03 994.79 994.15 993.59 993.31 993.35 992.87 992.43 992.23 992.23 992.23 992.07 992.51 993.47 993.07 991.43 991.23 991.39 990.91 990.87 991.23 991.27 991.31 991.15 991.67 992.31 993.47 993.79 993.71 994.11 994.31 994.63 994.95 995.15 995.19 995.67 996.07 996.59 997.31 997.83 998.35 998.63 999.03 999.47 999.87 1000.39 1000.75 1000.99 1001.31
999.27 1000.67 1001.19 1000.83 1000.59 1002.11 999.99 998.99 996.79 995.31 995.43 995.67 995.87 998.03 998.23 994.71 993.59 993.39 993.75 993.35 992.99 992.99 992.59 992.39 992.51 992.75 994.59 995.51 993.87 991.31 990.63 990.59 990.87 990.83 990.79 990.55 990.39 990.63 991.35 991.75 992.75 993.35 993.39 993.55 993.75 994.07 994.63 994.91 994.71 995.07 995.67 996.43 997.23 997.87 998.27 998.51 998.95 999.43 999.79 1000.23 1000.39 1000.75 1001.03
999.83 1000.51 1001.51 1001.07 1001.71 1000.07 998.95 998.43 996.95 995.95 995.31 995.71 996.03 998.63 999.99 996.07 995.55 995.07 995.43 995.99 995.23 994.11 992.87 992.47 992.67 994.23 996.11 995.39 993.31 991.35 990.83 990.59 990.27 990.71 990.79 990.79 990.63 990.91 991.39 991.99 992.71 992.99 993.19 993.27 993.55 993.87 994.31 994.79 994.47 994.75 995.47 996.31 997.19 997.91 998.07 998.31 998.59 999.15 999.59 999.87 1000.15 1000.55 1000.79
999.47 1000.03 1001.03 1001.35 999.63 999.79 998.67 997.07 996.39 995.67 995.47 995.83 998.03 1002.55 1000.15 998.19 996.55 995.95 995.79 995.95 995.51 995.11 994.59 993.63 992.95 994.15 995.59 994.31 992.71 991.07 990.47 989.99 989.51 989.95 990.75 990.91 990.83 990.91 991.15 991.35 991.83 992.51 992.87 993.39 993.99 994.19 994.47 994.51 994.11 994.59 995.31 996.19 997.07 997.51 997.75 997.91 998.55 999.07 999.31 999.47 999.63 1000.03 1000.35
999.67 1000.31 1000.11 999.23 998.35 996.19 995.99 996.47 996.19 995.79 995.75 997.51 1001.39 1003.07 998.91 997.11 996.15 995.79 995.75 995.67 994.79 994.63 994.79 993.99 994.67 992.51 991.51 991.07 990.55 990.11 989.55 989.19 988.95 989.59 990.11 990.47 990.39 990.87 991.23 991.67 992.03 992.79 993.19 993.51 993.87 993.95 993.99 994.11 994.15 994.55 995.31 996.27 997.07 997.27 997.55 998.15 998.75 998.91 998.95 999.19 999.59 999.99 1000.31
999.03 998.95 1000.39 999.79 998.07 995.47 994.83 995.03 995.55 995.59 998.43 1002.71 1002.23 998.15 996.83 996.27 996.15 995.67 995.47 995.27 995.03 994.59 994.39 994.27 993.43 992.43 990.83 989.55 990.03 990.07 990.31 990.23 990.19 990.35 990.47 990.55 990.71 990.95 991.03 991.75 992.39 992.95 993.31 993.75 993.87 993.95 994.03 994.23 994.51 995.03 995.67 996.63 997.07 997.43 997.87 998.51 998.67 998.59 998.99 999.43 999.75 1000.15 1000.59
997.27 998.03 999.43 999.83 1001.71 996.03 994.79 996.23 995.99 995.99 1000.19 998.87 997.39 996.55 995.95 995.39 995.67 995.67 995.23 995.23 994.95 994.71 994.67 993.55 993.27 992.59 991.79 990.87 990.55 990.67 990.87 991.35 992.03 991.47 991.19 991.43 991.63 991.75 992.23 992.75 992.67 992.91 993.43 993.79 994.03 994.35 994.23 994.39 994.91 995.47 996.07 996.99 997.47 997.75 998.35 998.55 998.43 998.83 999.27 999.63 1000.07 1000.47 1000.87
998.51 998.71 999.71 999.19 995.79 995.87 994.63 995.27 998.35 997.39 997.03 996.63 996.27 996.51 996.43 995.59 995.31 995.39 995.67 995.19 994.91 994.91 995.15 994.39 993.15 992.31 992.11 991.55 991.83 991.99 992.19 992.43 992.27 991.83 991.63 991.55 991.75 992.47 992.51 992.63 992.83 992.83 993.51 993.91 994.31 994.27 994.27 994.63 995.11 995.59 996.27 997.23 997.63 998.07 998.59 998.31 998.55 998.95 999.35 999.79 1000.23 1000.87 1001.35
995.95 996.95 996.03 996.87 995.07 995.11 994.39 994.95 996.11 996.43 996.19 995.95 996.07 995.99 996.03 996.07 995.67 995.19 995.47 995.47 995.11 994.79 994.99 995.03 994.15 993.19 991.99 992.19 991.99 992.59 992.79 992.63 992.55 992.35 992.31 992.27 992.43 992.47 992.59 992.79 992.87 993.35 993.99 994.43 994.59 994.95 994.95 995.15 995.39 995.83 996.31 997.11 997.87 998.51 998.51 998.35 998.87 999.19 999.55 999.79 1000.27 1000.99 1001.59
995.27 995.43 995.51 995.51 995.63 995.83 995.51 995.03 995.43 995.79 995.95 995.63 995.71 995.95 996.27 995.95 995.39 995.23 995.63 995.39 995.11 994.99 994.71 995.23 994.63 993.59 993.43 993.27 993.31 993.47 993.75 993.31 992.95 992.55 992.59 992.63 992.63 992.91 993.35 993.75 993.95 994.19 994.55 994.87 995.19 995.31 995.39 995.47 995.87 996.27 996.83 997.39 998.43 998.75 998.51 998.75 999.03 999.43 999.75 1000.07 1000.47 1001.07 1001.55
997.03 999.31 996.59 997.11 996.67 996.07 995.95 996.03 995.83 995.59 995.71 996.07 995.87 996.27 996.07 995.79 995.39 995.51 995.23 995.55 995.43 994.91 994.71 994.55 994.71 994.75 994.31 994.71 994.63 993.87 993.99 994.03 993.75 993.55 993.71 993.63 993.75 994.11 994.59 994.55 994.43 994.63 994.67 995.03 995.43 995.75 996.23 996.15 996.31 996.75 997.31 997.75 998.11 998.35 998.63 998.71 999.07 999.47 999.95 1000.35 1000.79 1001.31 1001.87
997.71 998.27 997.03 996.87 996.63 996.55 996.23 996.43 997.03 997.23 996.99 996.59 996.31 996.03 995.95 996.15 995.99 995.63 995.99 996.39 996.75 995.59 995.27 994.99 995.03 995.27 995.75 995.95 995.23 995.47 995.59 995.75 995.31 995.27 995.11 994.83 994.47 994.27 994.27 994.35 994.39 994.67 995.15 995.75 996.19 996.47 996.87 996.87 996.95 997.27 997.63 998.03 998.19 998.23 998.27 998.39 998.99 999.59 1000.15 1000.39 1000.91 1001.43 1001.83
999.39 998.07 997.67 996.99 997.19 997.35 997.83 997.99 997.95 997.75 997.43 997.23 997.15 996.99 997.19 997.27 997.23 997.19 996.79 996.67 997.63 997.91 997.11 996.71 995.91 995.91 995.75 995.47 995.67 995.91 996.11 996.03 996.23 996.19 995.95 995.51 995.15 995.11 995.27 995.35 995.31 995.83 996.15 996.59 996.91 997.19 997.55 997.51 997.63 997.95 998.15 998.15 998.07 998.15 998.31 998.67 999.15 999.67 1000.11 1000.39 1000.83 1001.27 1001.63
1001.55 1001.27 1000.39 998.07 999.35 999.95 998.99 998.87 998.79 998.51 998.39 998.31 997.91 997.63 997.79 998.15 998.71 998.67 998.47 998.27 997.75 997.39 997.07 996.87 996.79 996.87 996.67 996.03 995.71 996.11 996.31 996.47 996.27 996.03 995.79 995.55 995.47 995.59 995.59 995.71 995.99 996.31 996.59 996.87 997.27 997.63 997.87 997.91 998.11 998.39 998.67 998.71 998.63 998.63 998.83 999.11 999.27 999.67 1000.03 1000.31 1000.67 1001.07 1001.35
1001.99 1001.23 1000.63 999.91 999.87 999.19 999.27 999.35 999.15 998.91 998.63 998.87 998.71 998.75 999.23 999.31 999.19 999.47 1000.19 1000.07 999.07 998.67 998.19 997.55 997.35 997.51 997.23 996.67 996.03 996.15 996.59 996.75 996.51 996.23 996.19 996.23 996.27 996.35 996.35 996.59 996.87 997.03 997.27 997.43 997.63 997.95 998.03 998.03 998.27 998.39 998.55 998.55 998.59 998.71 998.87 998.95 999.11 999.59 999.99 1000.47 1000.67 1000.71 1001.15
1000.35 999.55 999.75 999.63 999.11 999.51 999.75 999.47 999.35 999.55 999.27 999.31 999.79 999.55 999.67 999.99 1000.15 1000.35 1000.47 1000.87 1000.75 999.95 998.99 998.63 998.23 997.99 997.79 997.39 996.95 997.15 997.31 997.31 997.51 997.39 996.99 996.67 996.67 996.75 996.83 997.23 997.51 997.67 997.79 997.99 998.19 998.39 998.23 998.23 998.35 998.35 998.47 998.59 998.79 998.87 999.07 999.15 999.35 999.79 1000.11 1000.51 1000.75 1000.59 1000.83
1000.39 998.91 999.55 999.35 999.39 999.23 999.07 999.39 999.71 999.79 999.75 999.91 1000.47 1000.55 1000.15 1000.23 1000.79 1001.07 1001.43 1001.11 1000.59 1000.23 999.99 999.79 999.55 999.15 998.75 998.11 997.63 997.95 998.27 998.35 998.15 997.99 997.91 997.79 997.67 997.55 997.63 997.71 997.95 998.07 998.15 998.19 998.27 998.31 998.35 998.39 998.43 998.51 998.79 998.91 998.87 999.11 999.31 999.43 999.67 1000.11 1000.43 1000.55 1000.59 1000.55 1000.79
Wind_Speed
18 21 19 20 20 16 14 17 21 20 15 18 15 15 18 17 15 16 12 12 14 13 15 10 10 11 12 14 15 16 18 18 13 7 12 17 17 19 20 20 20 21 21 22 21 21 21 21 21 21 20 20 20 19 19 19 19 18 18 18 17 16 15
21 18 20 22 23 17 12 17 19 19 19 18 15 14 13 16 16 14 16 19 16 15 13 13 16 15 15 14 17 20 19 16 10 11 12 13 17 19 21 20 20 21 22 24 23 22 23 23 24 23 22 21 19 19 19 20 19 19 19 18 17 16 16
19 17 17 19 22 25 21 14 13 16 16 20 18 13 19 17 18 13 15 22 18 14 12 10 19 19 18 19 18 19 17 16 14 15 14 14 17 17 18 20 19 20 21 22 22 24 25 23 22 22 22 21 20 19 19 20 20 20 19 16 16 14 15
15 16 15 16 17 22 27 23 16 18 15 17 18 15 11 12 17 15 18 21 15 13 13 18 15 19 19 20 21 20 18 16 15 16 14 11 10 14 17 18 19 20 22 23 24 23 24 24 23 22 23 21 23 21 20 19 19 18 18 17 16 15 16
14 16 15 18 17 19 20 21 20 14 14 13 14 14 17 15 14 15 14 16 13 13 13 17 17 15 16 18 19 16 16 19 19 13 14 14 16 17 16 17 19 20 21 22 23 23 22 22 21 20 22 23 21 20 20 21 20 20 20 18 18 16 15
16 17 17 20 20 19 18 19 21 19 15 16 18 19 18 18 15 11 13 15 11 13 13 11 10 11 14 14 17 17 18 19 10 7 15 16 15 17 17 17 18 19 19 21 21 20 19 21 22 23 22 21 22 21 20 20 20 19 20 19 17 16 16
15 17 18 20 21 20 20 19 20 22 18 14 15 14 13 13 17 18 16 14 12 9 11 11 12 15 18 15 12 10 10 10 11 11 13 15 14 15 16 16 16 17 18 18 19 20 21 22 22 23 21 21 21 22 21 19 20 21 21 20 18 16 16
12 15 16 19 21 21 20 20 19 20 22 20 15 14 13 15 16 17 16 18 13 11 8 8 12 14 15 15 14 13 12 13 13 16 12 16 14 14 14 13 13 14 15 16 14 17 18 17 18 22 20 19 19 20 20 20 21 22 20 19 18 17 17
12 13 13 14 17 17 16 16 18 22 24 28 22 18 13 16 18 18 15 18 13 13 14 13 12 11 14 14 15 16 16 14 12 12 3 4 7 10 12 12 12 13 15 16 14 15 15 15 18 18 18 19 20 19 20 20 20 20 19 18 18 17 17
17 17 17 17 17 19 15 18 21 24 26 25 21 21 16 14 14 20 18 16 12 13 14 15 13 9 11 14 16 16 16 13 12 13 9 10 10 11 12 12 13 14 12 13 12 14 14 17 17 16 16 18 19 19 20 19 19 18 19 18 18 17 17
14 13 11 11 13 13 17 19 23 22 22 23 23 18 19 18 13 17 17 17 13 16 18 19 21 14 12 12 12 12 12 15 17 9 10 9 10 11 13 13 12 11 11 15 16 15 16 18 17 16 17 18 18 17 19 19 17 18 17 16 16 17 17
18 15 16 13 16 18 19 20 21 23 23 23 24 21 20 16 16 17 16 16 19 21 20 19 20 19 18 16 15 15 15 13 10 11 12 13 12 12 11 12 13 14 13 13 15 16 17 17 16 16 17 17 16 17 18 17 18 17 15 16 15 16 17
23 24 21 16 17 19 18 18 19 21 23 24 24 23 24 21 18 18 15 17 20 20 24 22 19 18 17 18 19 20 16 14 12 10 12 14 14 14 15 14 14 14 15 15 16 17 17 18 18 18 16 16 14 15 16 15 16 17 15 14 16 17 16
19 21 24 23 21 20 19 21 22 23 23 24 26 24 23 27 22 18 17 17 21 20 21 23 23 19 16 16 14 15 17 16 12 15 14 14 12 13 14 15 15 15 15 15 17 17 17 19 19 18 17 16 16 17 16 17 14 14 13 15 15 16 16
18 20 21 24 25 24 22 23 24 25 22 23 25 25 26 24 24 26 26 23 20 16 15 19 22 23 21 15 16 18 16 16 17 18 17 14 14 12 11 12 13 14 15 16 17 18 19 20 20 18 16 16 16 17 16 16 14 14 15 15 16 16 15
16 17 20 22 23 25 26 25 25 24 24 23 23 21 21 22 19 19 23 22 17 14 17 14 16 20 22 26 21 14 13 15 15 14 12 13 12 11 10 9 12 14 16 17 18 20 21 21 21 18 16 16 16 16 16 16 16 16 15 16 16 15 15
16 17 20 22 21 20 21 25 26 26 25 22 23 22 21 22 22 20 19 19 15 14 14 17 17 19 21 23 24 24 21 14 16 15 15 16 16 13 6 6 10 15 16 18 19 19 18 18 19 19 18 17 16 15 16 15 14 16 16 16 15 15 14
13 16 18 16 15 17 19 17 22 23 24 24 25 23 25 24 21 17 17 16 16 18 19 21 20 22 19 18 17 17 16 17 17 22 20 18 18 18 15 12 13 15 15 14 16 19 18 17 18 17 16 15 14 14 14 15 16 15 15 15 14 14 14
13 13 15 15 19 19 13 11 14 20 24 26 28 27 24 24 24 25 24 23 22 18 18 20 20 18 17 19 22 23 22 20 20 18 20 18 17 16 9 8 13 14 15 14 15 16 17 17 17 17 16 15 15 14 15 16 15 15 15 14 14 14 14
9 11 12 13 16 9 11 12 14 9 9 12 14 18 20 24 23 22 21 21 19 19 20 19 17 18 20 21 20 20 22 22 23 24 22 21 20 18 12 11 13 15 16 16 17 17 16 17 17 16 16 16 16 15 15 15 15 15 14 14 14 14 14
12 13 14 16 8 11 14 13 3 2 3 2 5 10 12 14 15 17 22 21 21 20 19 17 16 12 13 16 16 22 22 20 21 19 20 23 22 18 13 15 14 14 15 16 17 16 16 17 18 17 16 16 16 16 16 15 15 15 14 14 14 14 14
12 12 13 12 14 14 5 10 6 1 2 5 4 5 10 13 19 18 19 19 21 21 19 18 16 15 16 16 16 16 17 18 17 15 16 16 13 10 12 13 15 15 15 15 17 17 19 18 18 16 17 16 16 15 15 15 15 15 14 14 13 13 13
10 13 14 13 13 8 5 2 3 3 4 3 6 4 11 2 9 10 14 14 16 16 20 19 16 16 18 17 14 11 14 17 18 18 17 18 16 12 12 15 16 16 16 16 18 18 19 19 19 19 18 18 16 16 15 16 15 15 14 13 13 13 12
13 12 12 13 9 8 9 7 6 0 4 4 4 9 11 7 12 12 12 14 13 12 13 15 17 16 17 16 13 15 19 20 17 15 13 13 14 13 12 13 14 15 15 15 17 18 19 18 19 19 19 17 16 15 15 14 14 13 13 13 12 12 12
15 14 12 11 9 7 8 7 1 4 4 6 9 12 1 8 9 9 11 14 14 12 12 9 12 15 16 14 11 17 19 21 15 12 11 11 11 12 13 13 14 14 15 15 16 18 15 16 17 17 16 16 15 14 14 13 13 12 12 11 11 12 11
18 16 15 13 9 7 11 10 9 8 6 7 11 1 2 6 9 8 11 12 13 14 12 9 10 14 19 12 14 16 9 6 5 9 10 10 10 11 12 14 14 14 14 14 15 15 14 15 14 14 13 14 13 13 13 12 12 11 11 10 10 10 10
13 13 14 12 12 8 13 9 9 6 9 4 2 3 4 4 6 10 10 9 10 12 13 13 13 14 16 17 11 7 8 4 5 7 9 10 12 12 14 15 14 15 15 16 15 15 15 15 13 12 14 15 13 12 12 12 11 11 10 10 9 9 9
13 14 14 7 5 8 9 10 7 4 3 4 4 5 3 3 4 4 6 7 8 9 12 15 14 14 14 5 4 7 8 9 9 9 9 10 11 13 13 14 15 16 15 15 16 16 15 14 14 14 15 14 14 14 15 12 12 11 11 10 9 8 7
12 8 5 6 8 8 5 4 6 6 2 2 2 2 3 3 3 4 6 7 9 8 8 13 13 9 8 6 7 8 9 8 8 10 11 12 13 14 14 15 16 16 16 18 17 18 16 16 14 14 14 16 16 15 12 11 11 11 11 11 11 9 8
3 10 10 7 6 7 7 7 5 6 7 6 6 6 5 5 3 5 5 8 7 7 8 10 9 6 2 5 7 6 7 9 10 12 13 13 13 15 15 16 16 18 18 19 19 19 18 16 15 13 13 13 15 13 12 11 11 10 10 11 11 10 8
7 3 7 8 9 9 9 10 9 9 9 10 9 9 8 8 8 6 6 5 7 5 2 1 3 4 5 6 7 9 10 10 12 13 14 14 15 16 16 16 16 15 15 16 17 18 17 14 14 13 13 11 12 12 12 12 11 11 11 11 10 9 8
5 4 7 10 8 8 8 7 8 9 12 14 14 13 13 13 13 11 10 10 12 9 8 8 10 11 10 9 10 11 11 10 11 11 12 15 16 16 15 15 15 16 16 16 16 15 14 12 12 12 12 12 11 11 11 12 12 11 11 10 10 9 8
3 6 3 7 11 12 12 13 12 9 10 13 16 17 17 16 15 15 16 13 10 4 11 11 11 13 12 12 13 12 11 12 11 11 11 15 16 16 15 14 15 14 15 15 15 15 13 11 11 10 10 10 10 10 11 12 11 11 10 10 9 9 8
2 2 5 4 5 7 8 10 9 9 11 13 17 18 19 17 17 17 15 15 16 16 16 15 14 14 13 15 15 16 14 13 12 13 13 14 16 16 15 13 15 15 14 15 15 14 11 10 10 11 10 9 8 9 9 9 9 10 10 9 9 9 8
1 3 1 4 6 9 9 7 8 9 9 10 16 18 16 16 17 16 17 18 15 17 18 18 18 16 16 17 18 18 16 15 13 12 13 13 13 13 14 14 14 14 13 13 13 13 11 10 10 10 10 9 8 8 7 7 8 9 9 7 7 7 7
3 4 5 5 2 7 8 9 9 10 10 10 13 15 16 16 16 15 14 13 16 15 16 19 20 18 17 17 18 19 17 16 15 14 13 12 12 12 12 12 12 12 12 12 11 11 10 9 10 9 9 9 7 8 7 6 7 7 6 6 5 6 6
4 6 6 8 9 9 7 8 9 10 11 11 11 12 14 14 13 13 14 12 14 17 16 17 18 19 19 18 18 17 16 16 15 13 13 12 13 11 11 11 11 10 10 9 9 9 9 9 9 9 9 8 7 7 6 6 6 7 6 5 5 5 3
Wind_Direction
205 203 206 216 219 218 189 203 218 222 217 229 238 253 241 233 238 238 231 237 222 222 232 221 203 210 216 207 219 225 226 226 202 206 195 191 203 206 204 199 197 194 190 188 188 188 189 188 189 191 189 189 192 190 190 189 188 186 187 188 190 190 191
209 203 205 219 217 230 212 208 217 219 224 235 237 233 224 239 240 229 230 238 227 217 223 203 220 197 211 218 219 226 229 229 202 193 215 208 208 205 200 198 194 193 191 188 189 189 189 188 188 188 187 187 189 190 188 187 186 188 188 187 188 189 189
194 198 201 215 224 219 235 230 190 216 192 218 222 237 231 225 227 239 228 236 241 215 222 204 218 208 200 213 216 228 229 229 198 190 206 216 207 207 203 196 194 193 192 191 189 189 188 187 186 186 184 185 186 188 188 187 188 189 187 187 188 188 189
173 194 197 214 205 215 227 242 230 201 229 218 219 217 243 240 241 225 232 233 234 225 218 210 217 217 203 213 217 218 222 230 219 182 192 190 218 225 205 197 196 196 194 193 191 189 188 186 185 184 184 185 187 188 187 189 188 187 187 187 185 188 190
185 206 198 214 206 200 205 218 230 218 211 226 230 219 220 232 242 240 239 231 233 236 219 202 208 209 209 218 219 212 214 227 230 193 177 186 200 208 207 200 197 197 197 195 193 192 189 186 183 184 186 187 189 188 188 189 188 186 187 187 186 188 189
205 216 202 214 216 210 210 210 218 226 217 202 214 223 214 218 227 237 239 239 229 224 234 234 179 219 219 221 217 201 205 224 227 211 184 183 199 198 201 203 201 198 197 196 194 192 190 187 186 187 186 187 189 190 189 190 189 189 190 188 187 187 190
202 217 212 205 226 229 220 211 217 218 231 225 220 225 213 219 227 237 246 255 232 207 217 206 192 212 221 211 214 215 204 232 231 236 234 167 177 187 200 204 203 198 195 197 194 190 192 191 187 185 185 188 189 189 189 189 190 191 191 189 187 186 189
231 204 220 210 208 229 229 219 218 214 221 224 230 228 219 228 218 221 228 232 237 244 260 256 185 204 224 210 195 208 209 214 224 240 239 132 168 187 200 206 204 198 192 191 191 189 191 191 187 187 186 186 186 187 188 188 191 191 192 189 187 186 188
236 216 198 225 199 206 227 226 213 218 222 221 225 237 226 234 228 231 229 238 220 227 236 236 242 198 210 220 215 214 226 227 239 243 135 115 163 177 194 202 201 195 189 188 191 187 187 189 189 187 185 183 184 185 188 189 191 190 191 189 188 187 188
208 203 202 200 203 201 209 226 225 218 222 215 214 225 225 232 221 231 238 235 226 225 211 224 243 201 193 208 222 223 224 229 230 246 168 160 169 179 191 194 196 198 188 179 183 183 184 189 190 187 186 184 182 182 188 188 187 187 188 189 187 185 188
218 222 226 197 210 204 213 211 225 229 216 220 220 227 232 231 222 235 236 251 251 233 221 220 209 203 204 208 215 237 248 221 210 215 141 164 168 178 187 189 194 195 187 183 184 181 184 189 188 187 187 187 183 181 186 188 185 185 185 187 182 183 187
243 234 228 227 215 228 213 214 215 223 229 215 222 222 228 230 235 233 232 228 234 253 250 235 227 209 211 220 238 239 239 258 219 180 153 166 172 177 181 186 192 195 191 182 183 181 181 185 187 186 188 188 184 181 184 185 184 183 183 184 179 181 187
229 247 256 233 232 242 239 218 220 223 222 232 227 225 233 229 228 238 227 225 231 235 244 252 249 230 208 211 227 238 231 223 209 217 189 182 182 180 182 188 189 189 189 185 184 182 181 181 184 186 187 188 186 183 184 185 184 183 177 177 179 183 186
226 228 241 250 241 227 229 240 237 225 225 226 235 238 229 232 240 244 242 238 237 227 231 240 250 257 235 213 219 224 227 225 229 235 204 188 191 182 187 186 187 189 190 184 184 183 182 184 183 185 186 186 185 181 181 184 185 178 170 174 179 182 185
241 232 231 236 242 251 241 223 230 241 229 227 228 233 238 235 235 238 239 238 239 239 229 228 237 250 258 251 205 219 221 229 231 229 235 228 224 213 195 187 188 188 188 186 185 188 186 183 184 185 185 185 183 182 180 181 180 174 172 173 179 182 183
242 238 238 234 235 235 245 247 238 228 230 234 230 223 224 234 235 235 243 244 238 233 237 228 227 243 248 252 254 227 215 212 223 244 244 241 240 233 237 198 194 188 190 187 189 191 189 183 180 183 183 182 181 181 176 177 177 174 174 173 177 180 181
237 233 235 243 238 238 236 236 237 240 241 232 237 236 227 229 235 233 230 240 247 242 235 237 230 228 234 241 243 247 248 246 240 237 236 241 250 252 208 170 185 193 195 195 193 193 191 185 179 183 180 179 180 178 174 171 172 173 174 174 176 179 180
233 230 237 235 238 236 235 232 237 239 246 249 240 230 232 230 226 236 234 242 236 233 237 235 233 232 233 233 240 245 249 252 243 240 243 239 237 243 237 207 207 202 197 198 194 192 192 190 177 176 177 175 175 171 169 168 172 172 173 172 175 177 179
232 230 232 234 234 236 250 243 241 244 245 247 256 257 242 232 232 236 239 232 231 236 234 232 235 237 238 239 242 241 238 242 249 244 237 235 232 246 235 201 217 211 198 193 188 187 185 183 173 170 172 172 170 169 169 168 171 171 173 171 173 177 181
235 235 222 233 232 257 254 243 229 239 279 284 288 282 265 246 241 243 248 249 241 229 234 239 235 228 228 237 240 239 239 238 238 238 238 234 233 229 216 209 201 192 189 187 185 181 176 174 171 170 172 170 167 166 167 167 170 170 172 172 172 176 179
225 220 233 240 262 254 239 241 42 315 295 316 302 275 284 298 299 268 244 244 252 246 237 234 240 236 239 239 236 236 232 236 243 242 237 237 231 223 196 201 197 183 183 182 177 172 173 174 166 167 167 165 165 163 165 167 167 168 171 172 174 175 178
217 226 227 233 228 229 190 51 138 204 47 310 350 325 280 273 271 279 284 261 247 247 249 244 238 242 245 241 238 223 225 231 236 238 245 246 243 222 204 183 177 175 176 177 170 172 168 172 162 159 162 159 162 163 165 164 164 165 169 171 172 172 175
207 220 231 229 231 224 112 153 49 21 17 303 358 283 264 259 341 338 340 334 326 302 260 241 234 235 237 239 238 235 237 238 234 234 231 234 231 217 194 183 175 175 174 177 170 169 165 167 160 157 159 158 161 163 164 164 165 165 169 169 170 172 172
221 223 224 229 228 230 167 177 194 25 303 97 261 248 233 37 343 353 330 324 313 320 329 292 246 233 240 235 232 241 248 243 231 221 217 214 214 208 188 186 172 166 167 163 166 167 170 165 157 157 157 158 159 161 162 163 164 164 167 166 167 166 165
216 220 232 240 233 225 174 178 201 287 323 289 234 229 345 348 341 341 339 322 312 319 310 302 267 251 247 251 246 242 252 248 212 191 201 205 203 182 172 161 153 159 163 166 169 166 162 158 157 155 153 155 155 155 152 157 159 160 158 157 158 156 158
218 215 228 234 257 219 187 165 187 177 234 239 242 80 248 299 324 344 325 319 323 313 300 293 272 279 274 261 250 257 277 295 140 181 177 178 169 167 170 148 156 159 162 161 164 157 148 148 146 146 146 142 142 142 146 146 145 142 142 144 147 148 153
221 220 222 228 231 151 168 159 202 162 225 237 349 350 330 333 318 314 304 320 314 307 300 289 280 283 277 261 252 269 263 231 203 183 165 158 166 159 143 147 153 153 152 153 147 139 139 136 136 137 135 129 128 131 128 125 123 126 129 133 136 141 147
219 212 222 230 243 129 193 187 209 165 316 348 3 345 316 10 327 324 331 316 314 310 299 289 280 256 254 260 251 228 221 216 198 175 159 155 139 134 148 150 153 149 138 136 135 133 127 127 127 125 121 120 122 119 116 117 121 123 126 126 126 130 143
216 239 217 89 88 118 158 113 69 109 112 78 46 307 19 356 16 358 321 338 329 312 295 287 276 258 234 207 199 205 214 199 163 136 132 138 146 149 146 137 129 129 128 125 122 122 122 115 113 116 118 119 118 118 120 124 125 130 130 130 128 133 150
85 81 97 108 103 126 115 129 137 114 98 79 57 39 37 33 16 17 338 340 333 314 279 246 259 264 270 194 158 153 167 166 136 125 126 126 121 121 118 118 119 124 123 119 113 105 99 100 102 105 111 116 117 118 123 124 128 127 127 127 130 136 148
206 163 118 116 111 112 107 99 87 84 80 76 71 67 55 36 31 29 10 5 346 11 334 102 120 114 166 129 116 103 86 98 113 114 113 119 121 119 114 110 111 111 107 103 99 99 99 104 109 112 112 113 118 127 130 130 128 129 129 130 129 135 139
235 120 92 99 99 81 87 96 94 83 80 76 66 59 60 54 42 43 58 41 5 11 62 67 82 84 83 85 106 105 101 85 78 83 93 102 102 99 100 101 101 99 96 95 96 96 97 99 104 110 116 119 126 132 132 131 129 129 129 133 134 140 145
44 44 20 122 104 100 88 76 74 60 64 79 72 68 58 48 49 50 48 60 99 54 59 58 77 84 82 91 95 95 81 80 79 85 91 94 92 92 89 83 85 89 93 94 94 94 93 93 95 98 102 112 124 131 127 127 135 136 132 131 137 144 152
186 168 234 180 158 140 97 74 66 69 62 59 70 63 55 49 41 32 40 46 40 45 47 57 59 67 75 78 82 79 73 67 66 69 72 72 76 80 83 87 88 90 93 100 102 101 102 106 107 108 108 110 113 117 122 129 137 129 133 141 151 158 164
14 21 316 77 75 65 75 63 40 37 52 55 66 67 57 45 41 43 28 14 32 38 37 34 44 49 48 51 57 61 57 51 53 63 69 75 79 82 83 86 87 89 92 95 99 101 106 110 112 116 122 127 126 123 125 133 138 134 142 151 167 169 167
299 330 57 31 48 106 90 63 55 44 42 54 56 66 64 50 40 29 41 34 19 20 30 32 29 33 42 45 50 53 51 48 49 50 53 66 81 84 83 83 89 92 93 95 97 104 109 113 113 115 113 111 114 121 126 129 128 132 146 150 186 170 180
41 63 113 102 97 99 104 90 68 57 54 50 49 45 60 62 46 35 23 19 29 25 26 25 24 24 26 35 43 46 46 43 35 41 49 50 49 61 74 79 82 86 90 93 99 106 110 110 108 106 105 110 114 106 111 118 130 137 150 169 183 172 140